Year,Month,Day,Hour,Minute,Value (Times are PST for temperature in C)
2012,04,06,00,00,1.50
2012,04,06,00,01,1.50
2012,04,06,00,02,1.50
2012,04,06,00,03,1.50
2012,04,06,00,04,1.50
2012,04,06,00,05,1.50
2012,04,06,00,06,1.50
2012,04,06,00,07,1.50
2012,04,06,00,08,1.40
2012,04,06,00,09,1.40
2012,04,06,00,10,1.40
2012,04,06,00,11,1.30
2012,04,06,00,12,1.30
2012,04,06,00,13,1.30
2012,04,06,00,14,1.30
2012,04,06,00,15,1.30
2012,04,06,00,16,1.30
2012,04,06,00,17,1.30
2012,04,06,00,18,1.30
2012,04,06,00,19,1.30
2012,04,06,00,20,1.30
2012,04,06,00,21,1.20
2012,04,06,00,22,1.20
2012,04,06,00,23,1.20
2012,04,06,00,24,1.20
2012,04,06,00,25,1.20
2012,04,06,00,26,1.20
2012,04,06,00,27,1.20
2012,04,06,00,28,1.20
2012,04,06,00,29,1.20
2012,04,06,00,30,1.10
2012,04,06,00,31,1.10
2012,04,06,00,32,1.10
2012,04,06,00,33,1.10
2012,04,06,00,34,1.10
2012,04,06,00,35,1.00
2012,04,06,00,36,1.00
2012,04,06,00,37,1.00
2012,04,06,00,38,1.00
2012,04,06,00,39,1.00
2012,04,06,00,40,1.00
2012,04,06,00,41,1.00
2012,04,06,00,42,1.00
2012,04,06,00,43,0.90
2012,04,06,00,44,0.90
2012,04,06,00,45,0.90
2012,04,06,00,46,0.90
2012,04,06,00,47,0.90
2012,04,06,00,48,0.90
2012,04,06,00,49,0.90
2012,04,06,00,50,0.80
2012,04,06,00,51,0.80
2012,04,06,00,52,0.80
2012,04,06,00,53,0.80
2012,04,06,00,54,0.80
2012,04,06,00,55,0.80
2012,04,06,00,56,0.80
2012,04,06,00,57,0.80
2012,04,06,00,58,0.80
2012,04,06,00,59,0.80
2012,04,06,01,00,0.70
2012,04,06,01,01,0.70
2012,04,06,01,02,0.70
2012,04,06,01,03,0.70
2012,04,06,01,04,0.70
2012,04,06,01,05,0.70
2012,04,06,01,06,0.70
2012,04,06,01,07,0.70
2012,04,06,01,08,0.70
2012,04,06,01,09,0.60
2012,04,06,01,10,0.60
2012,04,06,01,11,0.60
2012,04,06,01,12,0.60
2012,04,06,01,13,0.60
2012,04,06,01,14,0.60
2012,04,06,01,15,0.50
2012,04,06,01,16,0.50
2012,04,06,01,17,0.50
2012,04,06,01,18,0.50
2012,04,06,01,19,0.50
2012,04,06,01,20,0.50
2012,04,06,01,21,0.50
2012,04,06,01,22,0.50
2012,04,06,01,23,0.50
2012,04,06,01,24,0.50
2012,04,06,01,25,0.50
2012,04,06,01,26,0.50
2012,04,06,01,27,0.50
2012,04,06,01,28,0.50
2012,04,06,01,29,0.50
2012,04,06,01,30,0.50
2012,04,06,01,31,0.50
2012,04,06,01,32,0.40
2012,04,06,01,33,0.40
2012,04,06,01,34,0.40
2012,04,06,01,35,0.40
2012,04,06,01,36,0.40
2012,04,06,01,37,0.40
2012,04,06,01,38,0.40
2012,04,06,01,39,0.40
2012,04,06,01,40,0.40
2012,04,06,01,41,0.40
2012,04,06,01,42,0.40
2012,04,06,01,43,0.30
2012,04,06,01,44,0.30
2012,04,06,01,45,0.30
2012,04,06,01,46,0.30
2012,04,06,01,47,0.30
2012,04,06,01,48,0.30
2012,04,06,01,49,0.30
2012,04,06,01,50,0.30
2012,04,06,01,51,0.30
2012,04,06,01,52,0.30
2012,04,06,01,53,0.30
2012,04,06,01,54,0.30
2012,04,06,01,55,0.30
2012,04,06,01,56,0.30
2012,04,06,01,57,0.30
2012,04,06,01,58,0.30
2012,04,06,01,59,0.30
2012,04,06,02,00,0.20
2012,04,06,02,01,0.20
2012,04,06,02,02,0.20
2012,04,06,02,03,0.20
2012,04,06,02,04,0.20
2012,04,06,02,05,0.20
2012,04,06,02,06,0.20
2012,04,06,02,07,0.10
2012,04,06,02,08,0.10
2012,04,06,02,09,0.10
2012,04,06,02,10,0.10
2012,04,06,02,11,0.10
2012,04,06,02,12,0.10
2012,04,06,02,13,0.10
2012,04,06,02,14,0.10
2012,04,06,02,15,0.10
2012,04,06,02,16,0.10
2012,04,06,02,17,0.10
2012,04,06,02,18,0.10
2012,04,06,02,19,0.10
2012,04,06,02,20,0.10
2012,04,06,02,21,0.10
2012,04,06,02,22,0.10
2012,04,06,02,23,0.10
2012,04,06,02,24,0.10
2012,04,06,02,25,0.10
2012,04,06,02,26,0.10
2012,04,06,02,27,0.10
2012,04,06,02,28,0.10
2012,04,06,02,29,0.10
2012,04,06,02,30,0.10
2012,04,06,02,31,0.00
2012,04,06,02,32,-0.10
2012,04,06,02,33,-0.10
2012,04,06,02,34,-0.10
2012,04,06,02,35,-0.10
2012,04,06,02,36,-0.10
2012,04,06,02,37,-0.10
2012,04,06,02,38,-0.10
2012,04,06,02,39,-0.10
2012,04,06,02,40,-0.10
2012,04,06,02,41,-0.10
2012,04,06,02,42,-0.10
2012,04,06,02,43,-0.10
2012,04,06,02,44,-0.10
2012,04,06,02,45,-0.10
2012,04,06,02,46,-0.10
2012,04,06,02,47,-0.10
2012,04,06,02,48,-0.10
2012,04,06,02,49,-0.10
2012,04,06,02,50,-0.10
2012,04,06,02,51,-0.10
2012,04,06,02,52,-0.10
2012,04,06,02,53,-0.10
2012,04,06,02,54,-0.10
2012,04,06,02,55,-0.10
2012,04,06,02,56,-0.10
2012,04,06,02,57,-0.10
2012,04,06,02,58,-0.10
2012,04,06,02,59,-0.10
2012,04,06,03,00,-0.10
2012,04,06,03,01,-0.10
2012,04,06,03,02,-0.10
2012,04,06,03,03,-0.10
2012,04,06,03,04,-0.10
2012,04,06,03,05,-0.10
2012,04,06,03,06,-0.20
2012,04,06,03,07,-0.10
2012,04,06,03,08,-0.10
2012,04,06,03,09,-0.10
2012,04,06,03,10,-0.10
2012,04,06,03,11,-0.10
2012,04,06,03,12,-0.10
2012,04,06,03,13,-0.10
2012,04,06,03,14,-0.10
2012,04,06,03,15,-0.20
2012,04,06,03,16,-0.20
2012,04,06,03,17,-0.20
2012,04,06,03,18,-0.20
2012,04,06,03,19,-0.20
2012,04,06,03,20,-0.20
2012,04,06,03,21,-0.20
2012,04,06,03,22,-0.20
2012,04,06,03,23,-0.20
2012,04,06,03,24,-0.20
2012,04,06,03,25,-0.20
2012,04,06,03,26,-0.20
2012,04,06,03,27,-0.20
2012,04,06,03,28,-0.20
2012,04,06,03,29,-0.20
2012,04,06,03,30,-0.20
2012,04,06,03,31,-0.20
2012,04,06,03,32,-0.20
2012,04,06,03,33,-0.20
2012,04,06,03,34,-0.20
2012,04,06,03,35,-0.30
2012,04,06,03,36,-0.30
2012,04,06,03,37,-0.30
2012,04,06,03,38,-0.30
2012,04,06,03,39,-0.30
2012,04,06,03,40,-0.30
2012,04,06,03,41,-0.30
2012,04,06,03,42,-0.30
2012,04,06,03,43,-0.30
2012,04,06,03,44,-0.30
2012,04,06,03,45,-0.30
2012,04,06,03,46,-0.30
2012,04,06,03,47,-0.30
2012,04,06,03,48,-0.30
2012,04,06,03,49,-0.30
2012,04,06,03,50,-0.30
2012,04,06,03,51,-0.30
2012,04,06,03,52,-0.30
2012,04,06,03,53,-0.30
2012,04,06,03,54,-0.30
2012,04,06,03,55,-0.30
2012,04,06,03,56,-0.30
2012,04,06,03,57,-0.30
2012,04,06,03,58,-0.30
2012,04,06,03,59,-0.30
2012,04,06,04,00,-0.30
2012,04,06,04,01,-0.30
2012,04,06,04,02,-0.30
2012,04,06,04,03,-0.30
2012,04,06,04,04,-0.30
2012,04,06,04,05,-0.30
2012,04,06,04,06,-0.30
2012,04,06,04,07,-0.30
2012,04,06,04,08,-0.40
2012,04,06,04,09,-0.40
2012,04,06,04,10,-0.40
2012,04,06,04,11,-0.40
2012,04,06,04,12,-0.40
2012,04,06,04,13,-0.40
2012,04,06,04,14,-0.40
2012,04,06,04,15,-0.40
2012,04,06,04,16,-0.40
2012,04,06,04,17,-0.40
2012,04,06,04,18,-0.40
2012,04,06,04,19,-0.40
2012,04,06,04,20,-0.40
2012,04,06,04,21,-0.40
2012,04,06,04,22,-0.40
2012,04,06,04,23,-0.40
2012,04,06,04,24,-0.50
2012,04,06,04,25,-0.60
2012,04,06,04,26,-0.60
2012,04,06,04,27,-0.60
2012,04,06,04,28,-0.50
2012,04,06,04,29,-0.50
2012,04,06,04,30,-0.40
2012,04,06,04,31,-0.40
2012,04,06,04,32,-0.40
2012,04,06,04,33,-0.40
2012,04,06,04,34,-0.40
2012,04,06,04,35,-0.40
2012,04,06,04,36,-0.40
2012,04,06,04,37,-0.40
2012,04,06,04,38,-0.40
2012,04,06,04,39,-0.40
2012,04,06,04,40,-0.40
2012,04,06,04,41,-0.40
2012,04,06,04,42,-0.40
2012,04,06,04,43,-0.40
2012,04,06,04,44,-0.40
2012,04,06,04,45,-0.40
2012,04,06,04,46,-0.40
2012,04,06,04,47,-0.40
2012,04,06,04,48,-0.40
2012,04,06,04,49,-0.40
2012,04,06,04,50,-0.40
2012,04,06,04,51,-0.40
2012,04,06,04,52,-0.40
2012,04,06,04,53,-0.50
2012,04,06,04,54,-0.60
2012,04,06,04,55,-0.60
2012,04,06,04,56,-0.60
2012,04,06,04,57,-0.60
2012,04,06,04,58,-0.60
2012,04,06,04,59,-0.60
2012,04,06,05,00,-0.60
2012,04,06,05,01,-0.60
2012,04,06,05,02,-0.60
2012,04,06,05,03,-0.60
2012,04,06,05,04,-0.60
2012,04,06,05,05,-0.60
2012,04,06,05,06,-0.60
2012,04,06,05,07,-0.60
2012,04,06,05,08,-0.60
2012,04,06,05,09,-0.60
2012,04,06,05,10,-0.60
2012,04,06,05,11,-0.60
2012,04,06,05,12,-0.60
2012,04,06,05,13,-0.60
2012,04,06,05,14,-0.60
2012,04,06,05,15,-0.60
2012,04,06,05,16,-0.60
2012,04,06,05,17,-0.60
2012,04,06,05,18,-0.60
2012,04,06,05,19,-0.60
2012,04,06,05,20,-0.60
2012,04,06,05,21,-0.60
2012,04,06,05,22,-0.60
2012,04,06,05,23,-0.60
2012,04,06,05,24,-0.60
2012,04,06,05,25,-0.60
2012,04,06,05,26,-0.60
2012,04,06,05,27,-0.60
2012,04,06,05,28,-0.60
2012,04,06,05,29,-0.70
2012,04,06,05,30,-0.70
2012,04,06,05,31,-0.70
2012,04,06,05,32,-0.70
2012,04,06,05,33,-0.70
2012,04,06,05,34,-0.70
2012,04,06,05,35,-0.70
2012,04,06,05,36,-0.70
2012,04,06,05,37,-0.70
2012,04,06,05,38,-0.70
2012,04,06,05,39,-0.70
2012,04,06,05,40,-0.60
2012,04,06,05,41,-0.60
2012,04,06,05,42,-0.70
2012,04,06,05,43,-0.70
2012,04,06,05,44,-0.70
2012,04,06,05,45,-0.70
2012,04,06,05,46,-0.70
2012,04,06,05,47,-0.70
2012,04,06,05,48,-0.70
2012,04,06,05,49,-0.70
2012,04,06,05,50,-0.70
2012,04,06,05,51,-0.70
2012,04,06,05,52,-0.70
2012,04,06,05,53,-0.70
2012,04,06,05,54,-0.70
2012,04,06,05,55,-0.70
2012,04,06,05,56,-0.70
2012,04,06,05,57,-0.70
2012,04,06,05,58,-0.70
2012,04,06,05,59,-0.70
2012,04,06,06,00,-0.70
2012,04,06,06,01,-0.70
2012,04,06,06,02,-0.70
2012,04,06,06,03,-0.70
2012,04,06,06,04,-0.70
2012,04,06,06,05,-0.70
2012,04,06,06,06,-0.70
2012,04,06,06,07,-0.70
2012,04,06,06,08,-0.70
2012,04,06,06,09,-0.70
2012,04,06,06,10,-0.70
2012,04,06,06,11,-0.70
2012,04,06,06,12,-0.70
2012,04,06,06,13,-0.70
2012,04,06,06,14,-0.70
2012,04,06,06,15,-0.70
2012,04,06,06,16,-0.70
2012,04,06,06,17,-0.70
2012,04,06,06,18,-0.70
2012,04,06,06,19,-0.80
2012,04,06,06,20,-0.80
2012,04,06,06,21,-0.80
2012,04,06,06,22,-0.80
2012,04,06,06,23,-0.80
2012,04,06,06,24,-0.80
2012,04,06,06,25,-0.80
2012,04,06,06,26,-0.80
2012,04,06,06,27,-0.80
2012,04,06,06,28,-0.80
2012,04,06,06,29,-0.80
2012,04,06,06,30,-0.80
2012,04,06,06,31,-0.80
2012,04,06,06,32,-0.80
2012,04,06,06,33,-0.80
2012,04,06,06,34,-0.80
2012,04,06,06,35,-0.70
2012,04,06,06,36,-0.70
2012,04,06,06,37,-0.70
2012,04,06,06,38,-0.70
2012,04,06,06,39,-0.70
2012,04,06,06,40,-0.70
2012,04,06,06,41,-0.70
2012,04,06,06,42,-0.70
2012,04,06,06,43,-0.70
2012,04,06,06,44,-0.70
2012,04,06,06,45,-0.70
2012,04,06,06,46,-0.70
2012,04,06,06,47,-0.70
2012,04,06,06,48,-0.70
2012,04,06,06,49,-0.70
2012,04,06,06,50,-0.70
2012,04,06,06,51,-0.70
2012,04,06,06,52,-0.70
2012,04,06,06,53,-0.70
2012,04,06,06,54,-0.70
2012,04,06,06,55,-0.60
2012,04,06,06,56,-0.60
2012,04,06,06,57,-0.60
2012,04,06,06,58,-0.60
2012,04,06,06,59,-0.60
2012,04,06,07,00,-0.60
2012,04,06,07,01,-0.70
2012,04,06,07,02,-0.70
2012,04,06,07,03,-0.70
2012,04,06,07,04,-0.70
2012,04,06,07,05,-0.70
2012,04,06,07,06,-0.70
2012,04,06,07,07,-0.70
2012,04,06,07,08,-0.70
2012,04,06,07,09,-0.70
2012,04,06,07,10,-0.70
2012,04,06,07,11,-0.80
2012,04,06,07,12,-0.80
2012,04,06,07,13,-0.80
2012,04,06,07,14,-0.80
2012,04,06,07,15,-0.70
2012,04,06,07,16,-0.70
2012,04,06,07,17,-0.70
2012,04,06,07,18,-0.70
2012,04,06,07,19,-0.70
2012,04,06,07,20,-0.70
2012,04,06,07,21,-0.70
2012,04,06,07,22,-0.60
2012,04,06,07,23,-0.60
2012,04,06,07,24,-0.60
2012,04,06,07,25,-0.60
2012,04,06,07,26,-0.60
2012,04,06,07,27,-0.60
2012,04,06,07,28,-0.60
2012,04,06,07,29,-0.60
2012,04,06,07,30,-0.60
2012,04,06,07,31,-0.60
2012,04,06,07,32,-0.60
2012,04,06,07,33,-0.60
2012,04,06,07,34,-0.60
2012,04,06,07,35,-0.60
2012,04,06,07,36,-0.60
2012,04,06,07,37,-0.60
2012,04,06,07,38,-0.40
2012,04,06,07,39,-0.40
2012,04,06,07,40,-0.40
2012,04,06,07,41,-0.40
2012,04,06,07,42,-0.40
2012,04,06,07,43,-0.40
2012,04,06,07,44,-0.40
2012,04,06,07,45,-0.40
2012,04,06,07,46,-0.40
2012,04,06,07,47,-0.40
2012,04,06,07,48,-0.30
2012,04,06,07,49,-0.30
2012,04,06,07,50,-0.30
2012,04,06,07,51,-0.20
2012,04,06,07,52,-0.20
2012,04,06,07,53,-0.20
2012,04,06,07,54,-0.20
2012,04,06,07,55,-0.20
2012,04,06,07,56,-0.20
2012,04,06,07,57,-0.10
2012,04,06,07,58,-0.10
2012,04,06,07,59,-0.10
2012,04,06,08,00,-0.10
2012,04,06,08,01,-0.10
2012,04,06,08,02,-0.10
2012,04,06,08,03,-0.10
2012,04,06,08,04,-0.10
2012,04,06,08,05,-0.10
2012,04,06,08,06,-0.10
2012,04,06,08,07,0.00
2012,04,06,08,08,0.10
2012,04,06,08,09,0.10
2012,04,06,08,10,0.10
2012,04,06,08,11,0.10
2012,04,06,08,12,0.20
2012,04,06,08,13,0.20
2012,04,06,08,14,0.20
2012,04,06,08,15,0.20
2012,04,06,08,16,0.30
2012,04,06,08,17,0.30
2012,04,06,08,18,0.30
2012,04,06,08,19,0.30
2012,04,06,08,20,0.40
2012,04,06,08,21,0.40
2012,04,06,08,22,0.40
2012,04,06,08,23,0.40
2012,04,06,08,24,0.40
2012,04,06,08,25,0.50
2012,04,06,08,26,0.50
2012,04,06,08,27,0.50
2012,04,06,08,28,0.60
2012,04,06,08,29,0.60
2012,04,06,08,30,0.60
2012,04,06,08,31,0.60
2012,04,06,08,32,0.70
2012,04,06,08,33,0.70
2012,04,06,08,34,0.80
2012,04,06,08,35,0.80
2012,04,06,08,36,0.80
2012,04,06,08,37,0.80
2012,04,06,08,38,0.80
2012,04,06,08,39,0.80
2012,04,06,08,40,0.90
2012,04,06,08,41,0.90
2012,04,06,08,42,1.00
2012,04,06,08,43,1.00
2012,04,06,08,44,1.00
2012,04,06,08,45,1.10
2012,04,06,08,46,1.20
2012,04,06,08,47,1.20
2012,04,06,08,48,1.30
2012,04,06,08,49,1.30
2012,04,06,08,50,1.30
2012,04,06,08,51,1.40
2012,04,06,08,52,1.50
2012,04,06,08,53,1.50
2012,04,06,08,54,1.60
2012,04,06,08,55,1.60
2012,04,06,08,56,1.70
2012,04,06,08,57,1.80
2012,04,06,08,58,1.80
2012,04,06,08,59,1.90
2012,04,06,09,00,1.90
2012,04,06,09,01,2.00
2012,04,06,09,02,2.00
2012,04,06,09,03,2.10
2012,04,06,09,04,2.20
2012,04,06,09,05,2.20
2012,04,06,09,06,2.20
2012,04,06,09,07,2.30
2012,04,06,09,08,2.30
2012,04,06,09,09,2.40
2012,04,06,09,10,2.50
2012,04,06,09,11,2.50
2012,04,06,09,12,2.60
2012,04,06,09,13,2.70
2012,04,06,09,14,2.70
2012,04,06,09,15,2.80
2012,04,06,09,16,2.90
2012,04,06,09,17,2.90
2012,04,06,09,18,3.10
2012,04,06,09,19,3.10
2012,04,06,09,20,3.20
2012,04,06,09,21,3.20
2012,04,06,09,22,3.30
2012,04,06,09,23,3.30
2012,04,06,09,24,3.30
2012,04,06,09,25,3.30
2012,04,06,09,26,3.30
2012,04,06,09,27,3.40
2012,04,06,09,28,3.40
2012,04,06,09,29,3.50
2012,04,06,09,30,3.50
2012,04,06,09,31,3.60
2012,04,06,09,32,3.70
2012,04,06,09,33,3.70
2012,04,06,09,34,3.80
2012,04,06,09,35,3.80
2012,04,06,09,36,3.90
2012,04,06,09,37,4.00
2012,04,06,09,38,4.00
2012,04,06,09,39,4.00
2012,04,06,09,40,4.10
2012,04,06,09,41,4.20
2012,04,06,09,42,4.20
2012,04,06,09,43,4.30
2012,04,06,09,44,4.40
2012,04,06,09,45,4.50
2012,04,06,09,46,4.50
2012,04,06,09,47,4.60
2012,04,06,09,48,4.60
2012,04,06,09,49,4.60
2012,04,06,09,50,4.70
2012,04,06,09,51,4.70
2012,04,06,09,52,4.70
2012,04,06,09,53,4.80
2012,04,06,09,54,4.80
2012,04,06,09,55,4.80
2012,04,06,09,56,4.90
2012,04,06,09,57,4.90
2012,04,06,09,58,4.90
2012,04,06,09,59,4.90
2012,04,06,10,00,5.00
2012,04,06,10,01,5.10
2012,04,06,10,02,5.10
2012,04,06,10,03,5.10
2012,04,06,10,04,5.10
2012,04,06,10,05,5.10
2012,04,06,10,06,5.10
2012,04,06,10,07,5.20
2012,04,06,10,08,5.20
2012,04,06,10,09,5.30
2012,04,06,10,10,5.30
2012,04,06,10,11,5.30
2012,04,06,10,12,5.30
2012,04,06,10,13,5.40
2012,04,06,10,14,5.40
2012,04,06,10,15,5.50
2012,04,06,10,16,5.50
2012,04,06,10,17,5.50
2012,04,06,10,18,5.60
2012,04,06,10,19,5.60
2012,04,06,10,20,5.70
2012,04,06,10,21,5.70
2012,04,06,10,22,5.80
2012,04,06,10,23,5.80
2012,04,06,10,24,5.90
2012,04,06,10,25,6.00
2012,04,06,10,26,6.00
2012,04,06,10,27,6.10
2012,04,06,10,28,6.10
2012,04,06,10,29,6.10
2012,04,06,10,30,6.20
2012,04,06,10,31,6.20
2012,04,06,10,32,6.20
2012,04,06,10,33,6.20
2012,04,06,10,34,6.30
2012,04,06,10,35,6.30
2012,04,06,10,36,6.30
2012,04,06,10,37,6.40
2012,04,06,10,38,6.40
2012,04,06,10,39,6.40
2012,04,06,10,40,6.50
2012,04,06,10,41,6.60
2012,04,06,10,42,6.60
2012,04,06,10,43,6.70
2012,04,06,10,44,6.70
2012,04,06,10,45,6.80
2012,04,06,10,46,6.80
2012,04,06,10,47,6.90
2012,04,06,10,48,6.90
2012,04,06,10,49,6.90
2012,04,06,10,50,7.00
2012,04,06,10,51,7.00
2012,04,06,10,52,7.10
2012,04,06,10,53,7.10
2012,04,06,10,54,7.10
2012,04,06,10,55,7.20
2012,04,06,10,56,7.20
2012,04,06,10,57,7.20
2012,04,06,10,58,7.20
2012,04,06,10,59,7.20
2012,04,06,11,00,7.20
2012,04,06,11,01,7.30
2012,04,06,11,02,7.30
2012,04,06,11,03,7.30
2012,04,06,11,04,7.30
2012,04,06,11,05,7.30
2012,04,06,11,06,7.30
2012,04,06,11,07,7.30
2012,04,06,11,08,7.30
2012,04,06,11,09,7.30
2012,04,06,11,10,7.30
2012,04,06,11,11,7.30
2012,04,06,11,12,7.30
2012,04,06,11,13,7.30
2012,04,06,11,14,7.30
2012,04,06,11,15,7.30
2012,04,06,11,16,7.30
2012,04,06,11,17,7.30
2012,04,06,11,18,7.40
2012,04,06,11,19,7.40
2012,04,06,11,20,7.40
2012,04,06,11,21,7.40
2012,04,06,11,22,7.50
2012,04,06,11,23,7.40
2012,04,06,11,24,7.50
2012,04,06,11,25,7.50
2012,04,06,11,26,7.40
2012,04,06,11,27,7.40
2012,04,06,11,28,7.40
2012,04,06,11,29,7.40
2012,04,06,11,30,7.40
2012,04,06,11,31,7.40
2012,04,06,11,32,7.40
2012,04,06,11,33,7.40
2012,04,06,11,34,7.40
2012,04,06,11,35,7.40
2012,04,06,11,36,7.40
2012,04,06,11,37,7.40
2012,04,06,11,38,7.40
2012,04,06,11,39,7.50
2012,04,06,11,40,7.50
2012,04,06,11,41,7.50
2012,04,06,11,42,7.50
2012,04,06,11,43,7.50
2012,04,06,11,44,7.40
2012,04,06,11,45,7.40
2012,04,06,11,46,7.40
2012,04,06,11,47,7.30
2012,04,06,11,48,7.30
2012,04,06,11,49,7.30
2012,04,06,11,50,7.30
2012,04,06,11,51,7.30
2012,04,06,11,52,7.30
2012,04,06,11,53,7.30
2012,04,06,11,54,7.30
2012,04,06,11,55,7.30
2012,04,06,11,56,7.30
2012,04,06,11,57,7.40
2012,04,06,11,58,7.40
2012,04,06,11,59,7.40
2012,04,06,12,00,7.50
2012,04,06,12,01,7.60
2012,04,06,12,02,7.60
2012,04,06,12,03,7.60
2012,04,06,12,04,7.50
2012,04,06,12,05,7.50
2012,04,06,12,06,7.40
2012,04,06,12,07,7.40
2012,04,06,12,08,7.30
2012,04,06,12,09,7.40
2012,04,06,12,10,7.40
2012,04,06,12,11,7.50
2012,04,06,12,12,7.50
2012,04,06,12,13,7.50
2012,04,06,12,14,7.60
2012,04,06,12,15,7.60
2012,04,06,12,16,7.60
2012,04,06,12,17,7.70
2012,04,06,12,18,7.70
2012,04,06,12,19,7.70
2012,04,06,12,20,7.80
2012,04,06,12,21,7.80
2012,04,06,12,22,7.80
2012,04,06,12,23,7.80
2012,04,06,12,24,7.90
2012,04,06,12,25,7.90
2012,04,06,12,26,7.90
2012,04,06,12,27,8.00
2012,04,06,12,28,8.00
2012,04,06,12,29,8.00
2012,04,06,12,30,8.10
2012,04,06,12,31,8.10
2012,04,06,12,32,8.10
2012,04,06,12,33,8.10
2012,04,06,12,34,8.10
2012,04,06,12,35,8.00
2012,04,06,12,36,7.90
2012,04,06,12,37,7.80
2012,04,06,12,38,7.80
2012,04,06,12,39,7.70
2012,04,06,12,40,7.70
2012,04,06,12,41,7.60
2012,04,06,12,42,7.60
2012,04,06,12,43,7.50
2012,04,06,12,44,7.50
2012,04,06,12,45,7.50
2012,04,06,12,46,7.40
2012,04,06,12,47,7.40
2012,04,06,12,48,7.40
2012,04,06,12,49,7.40
2012,04,06,12,50,7.40
2012,04,06,12,51,7.40
2012,04,06,12,52,7.40
2012,04,06,12,53,7.30
2012,04,06,12,54,7.30
2012,04,06,12,55,7.30
2012,04,06,12,56,7.30
2012,04,06,12,57,7.30
2012,04,06,12,58,7.30
2012,04,06,12,59,7.20
2012,04,06,13,00,7.20
2012,04,06,13,01,7.20
2012,04,06,13,02,7.10
2012,04,06,13,03,7.00
2012,04,06,13,04,7.00
2012,04,06,13,05,6.90
2012,04,06,13,06,6.90
2012,04,06,13,07,6.90
2012,04,06,13,08,6.90
2012,04,06,13,09,6.80
2012,04,06,13,10,6.80
2012,04,06,13,11,6.80
2012,04,06,13,12,6.80
2012,04,06,13,13,6.80
2012,04,06,13,14,6.80
2012,04,06,13,15,6.80
2012,04,06,13,16,6.70
2012,04,06,13,17,6.70
2012,04,06,13,18,6.60
2012,04,06,13,19,6.60
2012,04,06,13,20,6.60
2012,04,06,13,21,6.60
2012,04,06,13,22,6.60
2012,04,06,13,23,6.60
2012,04,06,13,24,6.50
2012,04,06,13,25,6.40
2012,04,06,13,26,6.40
2012,04,06,13,27,6.40
2012,04,06,13,28,6.40
2012,04,06,13,29,6.30
2012,04,06,13,30,6.30
2012,04,06,13,31,6.30
2012,04,06,13,32,6.30
2012,04,06,13,33,6.20
2012,04,06,13,34,6.30
2012,04,06,13,35,6.30
2012,04,06,13,36,6.30
2012,04,06,13,37,6.30
2012,04,06,13,38,6.30
2012,04,06,13,39,6.30
2012,04,06,13,40,6.30
2012,04,06,13,41,6.30
2012,04,06,13,42,6.40
2012,04,06,13,43,6.40
2012,04,06,13,44,6.40
2012,04,06,13,45,6.40
2012,04,06,13,46,6.50
2012,04,06,13,47,6.60
2012,04,06,13,48,6.60
2012,04,06,13,49,6.70
2012,04,06,13,50,6.70
2012,04,06,13,51,6.80
2012,04,06,13,52,6.80
2012,04,06,13,53,6.80
2012,04,06,13,54,6.80
2012,04,06,13,55,6.90
2012,04,06,13,56,6.90
2012,04,06,13,57,6.90
2012,04,06,13,58,6.90
2012,04,06,13,59,6.90
2012,04,06,14,00,6.90
2012,04,06,14,01,6.90
2012,04,06,14,02,6.90
2012,04,06,14,03,6.90
2012,04,06,14,04,7.00
2012,04,06,14,05,7.00
2012,04,06,14,06,7.00
2012,04,06,14,07,7.00
2012,04,06,14,08,7.00
2012,04,06,14,09,7.00
2012,04,06,14,10,7.00
2012,04,06,14,11,7.10
2012,04,06,14,12,7.10
2012,04,06,14,13,7.10
2012,04,06,14,14,7.10
2012,04,06,14,15,7.20
2012,04,06,14,16,7.20
2012,04,06,14,17,7.20
2012,04,06,14,18,7.20
2012,04,06,14,19,7.20
2012,04,06,14,20,7.20
2012,04,06,14,21,7.20
2012,04,06,14,22,7.20
2012,04,06,14,23,7.20
2012,04,06,14,24,7.20
2012,04,06,14,25,7.20
2012,04,06,14,26,7.20
2012,04,06,14,27,7.20
2012,04,06,14,28,7.20
2012,04,06,14,29,7.20
2012,04,06,14,30,7.20
2012,04,06,14,31,7.20
2012,04,06,14,32,7.20
2012,04,06,14,33,7.20
2012,04,06,14,34,7.20
2012,04,06,14,35,7.30
2012,04,06,14,36,7.30
2012,04,06,14,37,7.30
2012,04,06,14,38,7.30
2012,04,06,14,39,7.30
2012,04,06,14,40,7.30
2012,04,06,14,41,7.30
2012,04,06,14,42,7.30
2012,04,06,14,43,7.30
2012,04,06,14,44,7.30
2012,04,06,14,45,7.30
2012,04,06,14,46,7.30
2012,04,06,14,47,7.30
2012,04,06,14,48,7.40
2012,04,06,14,49,7.40
2012,04,06,14,50,7.40
2012,04,06,14,51,7.40
2012,04,06,14,52,7.40
2012,04,06,14,53,7.40
2012,04,06,14,54,7.50
2012,04,06,14,55,7.50
2012,04,06,14,56,7.50
2012,04,06,14,57,7.50
2012,04,06,14,58,7.50
2012,04,06,14,59,7.50
2012,04,06,15,00,7.60
2012,04,06,15,01,7.60
2012,04,06,15,02,7.60
2012,04,06,15,03,7.50
2012,04,06,15,04,7.50
2012,04,06,15,05,7.50
2012,04,06,15,06,7.60
2012,04,06,15,07,7.60
2012,04,06,15,08,7.60
2012,04,06,15,09,7.60
2012,04,06,15,10,7.70
2012,04,06,15,11,7.70
2012,04,06,15,12,7.70
2012,04,06,15,13,7.70
2012,04,06,15,14,7.70
2012,04,06,15,15,7.80
2012,04,06,15,16,7.80
2012,04,06,15,17,7.80
2012,04,06,15,18,7.80
2012,04,06,15,19,7.80
2012,04,06,15,20,7.80
2012,04,06,15,21,7.90
2012,04,06,15,22,7.90
2012,04,06,15,23,8.00
2012,04,06,15,24,8.00
2012,04,06,15,25,8.10
2012,04,06,15,26,8.20
2012,04,06,15,27,8.20
2012,04,06,15,28,8.20
2012,04,06,15,29,8.30
2012,04,06,15,30,8.40
2012,04,06,15,31,8.50
2012,04,06,15,32,8.50
2012,04,06,15,33,8.60
2012,04,06,15,34,8.60
2012,04,06,15,35,8.60
2012,04,06,15,36,8.60
2012,04,06,15,37,8.60
2012,04,06,15,38,8.60
2012,04,06,15,39,8.60
2012,04,06,15,40,8.60
2012,04,06,15,41,8.70
2012,04,06,15,42,8.70
2012,04,06,15,43,8.70
2012,04,06,15,44,8.80
2012,04,06,15,45,8.90
2012,04,06,15,46,8.90
2012,04,06,15,47,8.90
2012,04,06,15,48,8.90
2012,04,06,15,49,8.90
2012,04,06,15,50,8.90
2012,04,06,15,51,8.90
2012,04,06,15,52,8.80
2012,04,06,15,53,8.80
2012,04,06,15,54,8.70
2012,04,06,15,55,8.70
2012,04,06,15,56,8.60
2012,04,06,15,57,8.60
2012,04,06,15,58,8.50
2012,04,06,15,59,8.50
2012,04,06,16,00,8.40
2012,04,06,16,01,8.30
2012,04,06,16,02,8.30
2012,04,06,16,03,8.20
2012,04,06,16,04,8.10
2012,04,06,16,05,8.00
2012,04,06,16,06,8.00
2012,04,06,16,07,7.90
2012,04,06,16,08,7.80
2012,04,06,16,09,7.80
2012,04,06,16,10,7.70
2012,04,06,16,11,7.60
2012,04,06,16,12,7.60
2012,04,06,16,13,7.60
2012,04,06,16,14,7.50
2012,04,06,16,15,7.50
2012,04,06,16,16,7.40
2012,04,06,16,17,7.40
2012,04,06,16,18,7.30
2012,04,06,16,19,7.30
2012,04,06,16,20,7.30
2012,04,06,16,21,7.30
2012,04,06,16,22,7.30
2012,04,06,16,23,7.30
2012,04,06,16,24,7.20
2012,04,06,16,25,7.20
2012,04,06,16,26,7.20
2012,04,06,16,27,7.20
2012,04,06,16,28,7.20
2012,04,06,16,29,7.20
2012,04,06,16,30,7.20
2012,04,06,16,31,7.30
2012,04,06,16,32,7.30
2012,04,06,16,33,7.30
2012,04,06,16,34,7.30
2012,04,06,16,35,7.30
2012,04,06,16,36,7.30
2012,04,06,16,37,7.30
2012,04,06,16,38,7.30
2012,04,06,16,39,7.40
2012,04,06,16,40,7.40
2012,04,06,16,41,7.40
2012,04,06,16,42,7.40
2012,04,06,16,43,7.40
2012,04,06,16,44,7.40
2012,04,06,16,45,7.40
2012,04,06,16,46,7.40
2012,04,06,16,47,7.40
2012,04,06,16,48,7.40
2012,04,06,16,49,7.40
2012,04,06,16,50,7.40
2012,04,06,16,51,7.40
2012,04,06,16,52,7.30
2012,04,06,16,53,7.30
2012,04,06,16,54,7.20
2012,04,06,16,55,7.10
2012,04,06,16,56,7.10
2012,04,06,16,57,7.00
2012,04,06,16,58,7.00
2012,04,06,16,59,7.00
2012,04,06,17,00,6.90
2012,04,06,17,01,6.90
2012,04,06,17,02,7.00
2012,04,06,17,03,7.00
2012,04,06,17,04,7.00
2012,04,06,17,05,7.00
2012,04,06,17,06,7.00
2012,04,06,17,07,7.00
2012,04,06,17,08,7.00
2012,04,06,17,09,6.90
2012,04,06,17,10,6.90
2012,04,06,17,11,6.80
2012,04,06,17,12,6.80
2012,04,06,17,13,6.80
2012,04,06,17,14,6.80
2012,04,06,17,15,6.80
2012,04,06,17,16,6.70
2012,04,06,17,17,6.70
2012,04,06,17,18,6.70
2012,04,06,17,19,6.70
2012,04,06,17,20,6.70
2012,04,06,17,21,6.60
2012,04,06,17,22,6.60
2012,04,06,17,23,6.60
2012,04,06,17,24,6.60
2012,04,06,17,25,6.60
2012,04,06,17,26,6.60
2012,04,06,17,27,6.60
2012,04,06,17,28,6.50
2012,04,06,17,29,6.40
2012,04,06,17,30,6.40
2012,04,06,17,31,6.40
2012,04,06,17,32,6.40
2012,04,06,17,33,6.40
2012,04,06,17,34,6.40
2012,04,06,17,35,6.40
2012,04,06,17,36,6.40
2012,04,06,17,37,6.40
2012,04,06,17,38,6.40
2012,04,06,17,39,6.40
2012,04,06,17,40,6.40
2012,04,06,17,41,6.40
2012,04,06,17,42,6.40
2012,04,06,17,43,6.30
2012,04,06,17,44,6.30
2012,04,06,17,45,6.30
2012,04,06,17,46,6.30
2012,04,06,17,47,6.30
2012,04,06,17,48,6.30
2012,04,06,17,49,6.30
2012,04,06,17,50,6.30
2012,04,06,17,51,6.30